Find Tenkoh-2

NORAD ID: 68261 Int'l Des: 2025-241 Owner: NIHON Country: J operational
LEOCIRCULAR

リアルタイム位置

3D地球を読み込み中...

Tenkoh-2について

説明を読み込み中...

次回通過

Passes for default location (London). Set your location on the main map for personalized predictions.

高度履歴

Loading altitude history...

軌道要素

1 68261U 25241B 26124.39746939 .00005899 00000-0 25866-3 0 9993
2 68261 51.6495 167.9653 0005960 4.8212 355.2822 15.23338323 8232
Epoch: May 4, 2026 • Age: 9 hours

現在のステータス

高度 499.7 km
速度 7.61 km/s
衛星直下点 7.96°N, 155°W
打ち上げ日 Oct 26, 2025
運用期間 0.5 years
タイプ other

技術仕様

分類 Payload
質量 10.00 kg
乾燥質量 10.00 kg
総質量 10.00 kg
長さ 0.30 m
直径 0.20 m
スパン 0.30 m
形状 Box
製造者 NIHON
バスタイプ Cubesat 6U
フェーズステータス In Orbit
所有者/国 NIHON/J

Most Searched